Weather History for KPOB - March, 2014

Change the Weather History Date:

Tuesday, March 25, 2014

  Actual Average Record
Temperature  
Mean Temperature 40 °F -  
Max Temperature 45 °F 66 °F 86 °F (2002)
Min Temperature 36 °F 43 °F 27 °F (1983)
Degree Days  
Heating Degree Days 24    
Moisture  
Dew Point 34 °F    
Average Humidity 74    
Maximum Humidity 87    
Minimum Humidity 61    
Precipitation  
Precipitation 0.01 in - - ()
Sea Level Pressure  
Sea Level Pressure 29.87 in    
Wind  
Wind Speed 6 mph (NNW)    
Max Wind Speed 16 mph    
Max Gust Speed 24 mph    
Visibility 10 miles    
Events Rain    
Averages and records for this station are not official NWS values.
T = Trace of Precipitation, MM = Missing Value Source: NWS Daily Summary

Daily Weather History Graph

Daily Weather History Graph

Search for Another Location

Airport or City:

Trip Planner

Search our weather history database for the weather conditions in past years. The results will help you decide how hot, cold, wet, or windy it might be!

Date:

Astronomy

Mar. 25, 2014 Rise Set
Actual Time 7:12 AM EDT 7:31 PM EDT
Civil Twilight 6:47 AM EDT 7:57 PM EDT
Nautical Twilight 6:17 AM EDT 8:26 PM EDT
Astronomical Twilight 5:47 AM EDT 8:57 PM EDT
Moon 3:21 AM EDT (3/25) 2:11 PM EDT (3/25)
Length of Visible Light 13h 09m
Length of Day
12h 19m
Waning Crescent, 32% of the Moon is Illuminated
Mar 25
Waning Crescent
Mar 30
New
Apr 7
First Quarter
Apr 15
Full
Apr 22
Last Quarter

Hourly Weather History & Observations

Time (EDT) Temp. Windchill Dew Point Humidity Pressure Visibility Wind Dir Wind Speed Gust Speed Precip Events Conditions
12:58 AM 40.8 °F - 28.6 °F 62% 30.10 in 10.0 mi Variable 2.3 mph - N/A   Mostly Cloudy
1:58 AM 40.3 °F - 28.6 °F 63% 30.08 in 10.0 mi Variable 1.2 mph - N/A   Overcast
2:58 AM 38.1 °F 35.7 °F 27.9 °F 67% 30.05 in 10.0 mi Variable 3.5 mph - N/A   Scattered Clouds
3:58 AM 36.0 °F - 30.4 °F 80% 30.01 in 10.0 mi East 2.3 mph - N/A   Overcast
4:58 AM 36.1 °F - 30.2 °F 79% 30.02 in 10.0 mi NE 2.3 mph - N/A   Overcast
5:58 AM 38.8 °F - 30.2 °F 71% 29.98 in 10.0 mi Variable 2.3 mph - N/A   Overcast
6:58 AM 36.5 °F - 30.9 °F 80% 29.99 in 10.0 mi NE 2.3 mph - N/A   Mostly Cloudy
7:58 AM 37.0 °F 34.5 °F 32.0 °F 82% 29.96 in 10.0 mi East 3.5 mph - N/A   Overcast
8:58 AM 41.0 °F 38.0 °F 31.6 °F 69% 29.92 in 10.0 mi Variable 4.6 mph - N/A   Scattered Clouds
9:58 AM 45.3 °F - 32.5 °F 61% 29.94 in 10.0 mi Calm Calm - N/A   Overcast
10:08 AM 44.6 °F - 32.0 °F 61% 29.93 in 10.0 mi Variable 1.2 mph - N/A   Overcast
10:56 AM 44.6 °F 42.2 °F 32.0 °F 61% 29.91 in 10.0 mi NE 4.6 mph - N/A   Light Drizzle
10:58 AM 44.6 °F 42.2 °F 32.0 °F 61% 29.92 in 10.0 mi NE 4.6 mph - N/A   Light Drizzle
11:28 AM 44.6 °F 41.4 °F 35.6 °F 71% 29.88 in 10.0 mi ENE 5.8 mph - N/A   Overcast
11:58 AM 44.8 °F 42.4 °F 34.9 °F 68% 29.89 in 10.0 mi North 4.6 mph - 0.00 in   Overcast
12:05 PM 44.6 °F 42.2 °F 35.6 °F 71% 29.88 in 10.0 mi NNW 4.6 mph - N/A   Light Drizzle
12:58 PM 44.4 °F 42.9 °F 35.6 °F 71% 29.86 in 10.0 mi North 3.5 mph - 0.00 in Rain Light Rain
1:19 PM 44.6 °F 42.2 °F 35.6 °F 71% 29.81 in 10.0 mi NNE 4.6 mph - N/A   Overcast
1:58 PM 45.7 °F 43.4 °F 36.9 °F 71% 29.81 in 10.0 mi North 4.6 mph - 0.00 in   Overcast
2:28 PM 44.6 °F 40.2 °F 35.6 °F 71% 29.79 in 10.0 mi NNE 8.1 mph - N/A   Overcast
2:38 PM 44.6 °F 39.7 °F 35.6 °F 71% 29.79 in 10.0 mi NNE 9.2 mph - N/A   Overcast
2:43 PM 44.6 °F 40.2 °F 35.6 °F 71% 29.78 in 10.0 mi NNE 8.1 mph - N/A   Light Drizzle
2:58 PM 45.5 °F 41.8 °F 36.5 °F 71% 29.79 in 10.0 mi NNE 6.9 mph - 0.00 in Rain Light Rain
3:58 PM 43.7 °F 38.1 °F 36.9 °F 77% 29.78 in 10.0 mi NNW 10.4 mph - 0.00 in Rain Light Rain
4:18 PM 42.8 °F 38.0 °F 37.4 °F 81% 29.77 in 10.0 mi North 8.1 mph - N/A Rain Light Rain
4:33 PM 42.8 °F 38.6 °F 39.2 °F 87% 29.77 in 10.0 mi NNW 6.9 mph - N/A   Light Drizzle
4:38 PM 42.8 °F 38.6 °F 37.4 °F 81% 29.77 in 10.0 mi North 6.9 mph - N/A   Light Drizzle
4:41 PM 42.8 °F 38.0 °F 37.4 °F 81% 29.77 in 10.0 mi NNW 8.1 mph - N/A   Overcast
4:46 PM 42.8 °F 38.6 °F 37.4 °F 81% 29.77 in 10.0 mi NNW 6.9 mph - N/A   Overcast
4:56 PM 42.8 °F 38.6 °F 37.4 °F 81% 29.77 in 10.0 mi NW 6.9 mph - N/A   Overcast
4:58 PM 42.8 °F 39.3 °F 37.4 °F 81% 29.78 in 10.0 mi NW 5.8 mph - 0.01 in   Mostly Cloudy
5:28 PM 44.6 °F 39.7 °F 37.4 °F 76% 29.77 in 10.0 mi NW 9.2 mph - N/A   Overcast
5:33 PM 44.6 °F 39.2 °F 37.4 °F 76% 29.77 in 10.0 mi NW 10.4 mph - N/A   Light Drizzle
5:50 PM 44.6 °F 39.7 °F 37.4 °F 76% 29.77 in 10.0 mi NW 9.2 mph - N/A   Overcast
5:58 PM 44.2 °F 38.8 °F 37.2 °F 76% 29.79 in 10.0 mi NW 10.4 mph - 0.00 in   Overcast
6:32 PM 44.6 °F 40.2 °F 37.4 °F 76% 29.80 in 10.0 mi NW 8.1 mph 18.4 mph N/A   Mostly Cloudy
6:43 PM 44.6 °F 38.4 °F 37.4 °F 76% 29.80 in 10.0 mi NW 12.7 mph 17.3 mph N/A   Mostly Cloudy
6:53 PM 42.8 °F 37.0 °F 37.4 °F 81% 29.81 in 10.0 mi NNW 10.4 mph - N/A   Mostly Cloudy
6:58 PM 43.3 °F 37.7 °F 36.9 °F 78% 29.83 in 10.0 mi NW 10.4 mph - 0.00 in   Mostly Cloudy
7:54 PM 42.8 °F 37.0 °F 35.6 °F 76% 29.84 in 10.0 mi NNW 10.4 mph 18.4 mph N/A   Light Drizzle
7:58 PM 42.8 °F 36.6 °F 34.9 °F 74% 29.86 in 10.0 mi NNW 11.5 mph 18.4 mph 0.00 in   Light Drizzle
8:05 PM 42.8 °F 35.4 °F 32.0 °F 66% 29.84 in 10.0 mi NNW 15.0 mph 23.0 mph N/A   Partly Cloudy
8:22 PM 42.8 °F 37.0 °F 32.0 °F 66% 29.86 in 10.0 mi NW 10.4 mph 23.0 mph N/A   Light Drizzle
8:32 PM 41.0 °F 32.8 °F 35.6 °F 81% 29.87 in 10.0 mi WNW 16.1 mph 24.2 mph N/A Rain Light Rain
8:42 PM 39.2 °F 31.2 °F 33.8 °F 81% 29.88 in 10.0 mi NNW 13.8 mph 23.0 mph N/A Rain Light Rain
8:47 PM 39.2 °F 32.0 °F 32.0 °F 75% 29.87 in 10.0 mi NNW 11.5 mph 21.9 mph N/A Rain Light Rain
8:52 PM 39.2 °F 32.5 °F 32.0 °F 75% 29.88 in 10.0 mi NNW 10.4 mph 21.9 mph N/A Rain Light Rain
8:56 PM 39.2 °F 33.0 °F 32.0 °F 75% 29.88 in 10.0 mi NNW 9.2 mph 17.3 mph N/A   Scattered Clouds
8:58 PM 39.2 °F 32.5 °F 32.0 °F 75% 29.89 in 10.0 mi NW 10.4 mph 17.3 mph 0.00 in   Scattered Clouds
9:10 PM 39.2 °F 32.5 °F 32.0 °F 75% 29.89 in 10.0 mi NNW 10.4 mph - N/A   Scattered Clouds
9:18 PM 39.2 °F 33.6 °F 32.0 °F 75% 29.89 in 10.0 mi NNW 8.1 mph - N/A Rain Light Rain
9:27 PM 39.2 °F 33.6 °F 32.0 °F 75% 29.89 in 10.0 mi NW 8.1 mph - N/A   Mostly Cloudy
9:58 PM 39.0 °F 32.8 °F 32.0 °F 76% 29.92 in 10.0 mi NW 9.2 mph - 0.00 in   Scattered Clouds
10:58 PM 36.5 °F 31.8 °F 32.4 °F 85% 29.96 in 10.0 mi NW 5.8 mph - N/A   Clear
11:58 PM 36.3 °F 29.5 °F 30.0 °F 78% 29.98 in 10.0 mi NW 9.2 mph - N/A   Clear